Change the Weather History Date:

Sunday, July 14, 2013

  Actual Average Record
Temperature  
Mean Temperature 78 °F 83 °F  
Max Temperature 91 °F 94 °F 109 °F (1933)
Min Temperature 64 °F 72 °F 57 °F (1990)
Degree Days  
Heating Degree Days 0 0  
Month to date heating degree days 0 0  
Since 1 June heating degree days 0 1  
Since 1 July heating degree days 0 0  
Cooling Degree Days 13 18  
Month to date cooling degree days 261 245  
Year to date cooling degree days 1266 1077  
Since 1 June cooling degree days 785 680  
Growing Degree Days 28 (Base 50)    
Moisture  
Dew Point 61 °F    
Average Humidity 67    
Maximum Humidity 100    
Minimum Humidity 34    
Precipitation  
Precipitation 1.08 in 0.06 in 1.28 in (1911)
Month to date precipitation 1.08 0.90  
Year to date precipitation 12.43 13.40  
Sea Level Pressure  
Sea Level Pressure 29.88 in    
Wind  
Wind Speed 14 mph (ESE)    
Max Wind Speed 28 mph    
Max Gust Speed 32 mph    
Visibility 9 miles    
Events Rain , Thunderstorm    
T = Trace of Precipitation, MM = Missing Value Source: NWS Daily Summary

Daily Weather History Graph

Daily Weather History Graph

Search for Another Location

Airport or City:

Trip Planner

Search our weather history database for the weather conditions in past years. The results will help you decide how hot, cold, wet, or windy it might be!

Date:

Astronomy

Jul. 14, 2013 Rise Set
Actual Time 6:41 AM CDT 8:47 PM CDT
Civil Twilight 6:14 AM CDT 9:14 PM CDT
Nautical Twilight 5:40 AM CDT 9:48 PM CDT
Astronomical Twilight 5:03 AM CDT 10:24 PM CDT
Moon 12:36 PM CDT (7/14) No Moon Set
Length of Visible Light 15h 00m
Length of Day
14h 05m
Waxing Crescent, 35% of the Moon is Illuminated
Jul 14
Waxing Crescent
Jul 15
First Quarter
Jul 22
Full
Jul 29
Last Quarter
Aug 6
New

Hourly Weather History & Observations

Time (CDT) Temp. Heat Index Dew Point Humidity Pressure Visibility Wind Dir Wind Speed Gust Speed Precip Events Conditions
12:52 AM 87.1 °F 86.1 °F 57.9 °F 37% 29.86 in 10.0 mi SE 15.0 mph - N/A   Clear
1:52 AM 84.9 °F 84.2 °F 57.9 °F 40% 29.86 in 10.0 mi SE 11.5 mph - N/A   Clear
2:52 AM 82.9 °F 82.8 °F 59.0 °F 44% 29.85 in 10.0 mi SSE 10.4 mph - N/A   Clear
3:52 AM 82.9 °F 82.8 °F 59.0 °F 44% 29.83 in 10.0 mi SSE 15.0 mph - N/A   Clear
4:52 AM 81.0 °F 81.3 °F 59.0 °F 47% 29.83 in 10.0 mi SSE 10.4 mph - N/A   Partly Cloudy
5:52 AM 79.0 °F - 59.0 °F 50% 29.82 in 10.0 mi South 8.1 mph - N/A   Clear
6:52 AM 77.0 °F - 59.0 °F 54% 29.81 in 10.0 mi SSW 3.5 mph - N/A   Clear
7:52 AM 78.1 °F - 60.1 °F 54% 29.81 in 10.0 mi South 6.9 mph - N/A   Clear
8:52 AM 84.0 °F 83.3 °F 57.0 °F 40% 29.85 in 10.0 mi East 9.2 mph - N/A   Scattered Clouds
9:52 AM 87.1 °F 86.5 °F 59.0 °F 39% 29.87 in 10.0 mi East 13.8 mph - N/A   Clear
10:52 AM 89.1 °F 88.0 °F 57.9 °F 35% 29.86 in 10.0 mi ESE 9.2 mph - N/A   Clear
11:52 AM 88.0 °F 86.9 °F 57.9 °F 36% 29.87 in 10.0 mi ENE 17.3 mph - N/A   Clear
12:52 PM 89.1 °F 89.0 °F 61.0 °F 39% 29.86 in 10.0 mi East 18.4 mph 28.8 mph N/A   Clear
1:52 PM 89.1 °F 89.3 °F 62.1 °F 40% 29.84 in 10.0 mi East 23.0 mph 28.8 mph N/A   Clear
2:52 PM 88.0 °F 88.4 °F 62.1 °F 42% 29.84 in 10.0 mi East 23.0 mph 29.9 mph N/A   Clear
3:52 PM 89.1 °F 88.8 °F 60.1 °F 38% 29.82 in 10.0 mi East 19.6 mph 27.6 mph N/A   Clear
4:52 PM 82.9 °F 83.3 °F 61.0 °F 47% 29.84 in 10.0 mi East 21.9 mph 31.1 mph N/A   Clear
5:52 PM 79.0 °F - 60.1 °F 52% 29.85 in 10.0 mi ESE 20.7 mph 27.6 mph 0.00 in   Partly Cloudy
6:52 PM 75.9 °F - 62.1 °F 62% 29.88 in 10.0 mi ENE 15.0 mph 21.9 mph 0.00 in   Partly Cloudy
7:52 PM 71.1 °F - 64.9 °F 81% 29.88 in 9.0 mi East 17.3 mph 23.0 mph 0.00 in Rain Light Rain
8:52 PM 68.0 °F - 66.0 °F 93% 29.94 in 6.0 mi NNE 10.4 mph - 0.02 in Rain Light Rain
9:52 PM 66.9 °F - 66.9 °F 100% 29.93 in 6.0 mi East 10.4 mph - 0.07 in Rain Light Rain
10:03 PM 66.2 °F - 66.2 °F 100% 29.98 in 2.5 mi East 13.8 mph - 0.08 in Rain , Thunderstorm Thunderstorms and Rain
10:11 PM 66.2 °F - 66.2 °F 100% 29.99 in 4.0 mi East 12.7 mph - 0.12 in Rain , Thunderstorm Thunderstorms and Rain
10:36 PM 66.2 °F - - N/A% 29.99 in 10.0 mi East 15.0 mph 20.7 mph 0.12 in   Scattered Clouds
10:52 PM 66.0 °F - - N/A% 29.92 in 10.0 mi East 15.0 mph - 0.12 in Rain Light Rain
11:48 PM 66.2 °F - 66.2 °F 100% 30.01 in 6.0 mi ENE 10.4 mph - 0.03 in Rain Light Rain
11:52 PM 66.0 °F - 66.0 °F 100% 29.93 in 8.0 mi East 12.7 mph - 0.03 in Rain Light Rain
11:59 PM 66.2 °F - 66.2 °F 100% 30.01 in 9.0 mi East 11.5 mph - 0.01 in Rain Light Rain